GFSCGP_850_dewp_132.txt.gz
Dewpoint
-6 -1 2 3 5 4 5 7 11 12 14 14 14 14 14 14 15 15 14 12 11 11 12 14 14 14 14 14 15 16 16 15 15 14 13 13 13 14 14 15 15 13 15 12
-4 -2 -1 1 5 5 5 9 11 12 12 13 13 14 15 14 15 15 15 14 11 11 11 13 14 13 14 14 14 16 16 15 15 15 14 14 13 14 15 15 15 16 15 13
-8 -6 -0 0 2 4 5 7 9 10 12 12 14 15 15 14 14 15 14 13 12 10 11 13 14 14 14 15 14 16 16 15 15 15 16 16 15 15 15 15 15 15 13 15
-7 -4 -0 1 1 2 4 5 9 10 10 12 12 13 15 14 15 15 12 13 12 11 11 12 13 14 14 14 15 15 16 15 14 16 15 15 13 13 14 14 15 15 15 14
-5 -3 -0 1 0 -0 3 5 8 8 10 10 11 14 15 14 15 14 13 13 12 10 11 11 13 14 13 14 15 15 16 13 15 15 16 13 15 14 14 15 15 15 13 12
-5 -6 -4 -3 -2 -1 4 6 9 9 9 10 9 12 12 14 13 12 13 12 12 10 10 11 12 13 14 14 15 15 16 13 14 13 14 15 15 14 14 15 15 15 14 15
-7 -6 -7 -5 -2 -1 3 4 7 8 9 10 11 13 11 10 9 10 11 12 12 11 10 11 12 13 14 14 14 15 16 15 15 15 16 16 16 16 16 16 15 14 14 14
-5 -4 -6 -4 -3 0 2 1 3 10 12 12 12 13 12 8 9 8 9 10 12 12 10 10 11 13 14 14 15 15 15 16 16 16 16 16 13 14 15 15 15 15 14 15
-5 -3 -4 -0 -4 -1 1 3 1 5 7 9 8 10 10 7 10 10 9 10 11 12 11 10 11 13 14 14 15 15 15 15 15 15 15 15 14 14 16 16 15 16 16 15
-2 1 2 5 5 2 4 1 5 4 11 12 8 9 10 11 13 12 11 11 11 13 13 11 11 13 13 14 14 15 15 15 15 15 15 16 16 15 16 15 14 16 16 14
-2 -0 4 6 7 6 6 5 4 3 6 13 11 12 10 13 14 12 11 11 12 12 13 12 12 12 13 14 14 15 15 16 15 16 15 16 16 16 16 14 14 15 14 16
-2 -2 1 2 1 1 6 6 4 6 10 8 13 7 11 13 13 13 10 11 12 13 14 13 13 13 13 14 14 15 15 15 15 15 16 16 16 16 16 16 17 16 13 13
-2 -1 1 2 2 2 2 3 4 3 12 12 6 7 11 12 13 14 13 11 12 13 14 13 14 13 14 15 15 15 16 16 16 16 16 16 16 16 16 16 16 16 15 14
-1 -1 1 2 3 3 3 5 4 3 2 2 2 4 9 13 14 14 14 14 13 12 13 12 13 14 14 13 15 16 16 16 16 16 16 16 16 16 16 16 16 16 14 13
-1 3 2 3 4 3 3 4 4 4 5 5 8 8 12 14 14 14 14 15 14 14 15 14 15 15 14 15 14 16 17 17 17 17 17 16 16 17 16 16 16 16 16 15
-2 4 4 5 5 5 3 3 4 6 6 7 9 10 13 13 13 14 14 14 14 14 15 14 14 15 15 15 14 14 16 16 16 17 16 17 17 16 16 14 13 11 13 16
-0 1 4 4 5 4 6 5 6 6 8 7 6 12 12 13 13 13 13 12 13 14 15 14 13 12 12 14 15 14 14 16 13 12 12 13 14 14 13 13 14 15 16 16
1 1 1 3 5 6 6 6 7 7 9 10 11 11 12 13 13 13 12 12 12 14 14 15 15 15 14 14 13 14 15 14 14 12 14 14 14 15 14 14 14 14 15 16
1 1 2 2 3 2 3 6 6 6 6 8 8 10 9 10 12 13 13 12 12 13 13 14 14 14 14 14 13 15 14 14 13 13 13 13 12 14 16 15 15 15 16 16
-1 3 2 2 3 4 5 5 5 5 5 6 7 8 8 8 8 13 12 12 12 12 13 14 14 14 14 13 12 15 14 14 13 13 14 14 14 14 14 15 15 15 15 15
2 2 2 2 3 1 4 5 5 7 7 6 7 8 9 9 11 12 12 12 12 12 12 12 13 14 14 15 15 15 15 14 13 14 12 14 14 13 12 14 15 15 15 15
1 2 2 2 4 5 4 5 6 7 7 7 9 10 10 11 12 12 12 11 11 12 12 12 13 13 13 14 14 15 15 15 15 15 15 15 13 13 13 14 15 15 15 14
1 -1 2 1 4 6 5 6 5 6 8 8 8 7 8 10 10 11 11 10 11 12 12 12 12 13 13 14 14 14 14 12 12 12 13 14 15 14 12 12 14 14 13 13
3 3 1 3 2 4 5 6 6 7 5 4 5 5 6 7 10 10 10 10 11 11 12 11 12 12 13 13 14 14 14 12 12 13 14 14 12 11 12 12 12 13 13 13
3 4 2 3 4 5 6 5 7 7 6 6 5 5 4 5 8 10 10 11 11 11 11 11 12 12 12 12 13 13 14 13 14 13 13 12 12 13 11 12 12 13 13 13
3 2 3 0 1 1 1 5 6 6 6 7 7 6 5 5 7 9 10 11 11 11 11 11 11 11 12 12 12 13 13 13 13 13 13 13 13 13 13 12 13 12 12 12

GFSCGP_850_dewp_138.txt.gz
Dewpoint
-13 -6 -2 -0 0 5 8 8 11 14 12 13 13 14 15 12 13 13 13 13 11 13 11 11 14 11 13 13 13 14 14 14 13 13 13 14 11 13 12 14 15 14 13 16
-12 -7 -6 -4 -2 3 6 6 8 11 10 11 11 14 14 13 12 11 12 13 13 11 12 11 13 12 13 13 13 15 15 14 13 14 13 13 13 13 12 14 15 14 15 15
-11 -10 -10 -5 -2 4 4 5 9 10 8 8 9 13 16 14 12 11 11 10 13 14 14 11 12 13 13 14 13 14 14 13 14 15 13 13 13 13 13 13 14 13 15 14
-11 -11 -10 -7 -4 1 1 4 6 9 7 8 10 14 16 15 15 12 12 11 12 13 14 12 12 12 14 14 13 14 12 13 14 14 14 13 13 13 13 14 13 14 13 14
-10 -11 -6 -2 -1 -2 -1 2 3 5 8 5 6 10 14 15 16 15 13 11 11 11 14 13 13 12 12 13 14 14 12 13 15 13 14 14 14 14 14 14 14 15 14 14
-7 -7 -7 -5 -5 -4 -4 3 4 7 7 6 4 7 16 18 16 14 13 13 11 10 11 12 13 13 12 12 14 16 14 15 14 13 15 14 13 14 13 13 14 14 15 13
-8 -8 -8 -8 -4 -5 -3 -1 3 5 4 7 10 10 16 12 13 12 13 14 11 11 10 13 12 13 12 12 12 15 15 14 14 13 15 14 14 14 14 14 14 12 14 15
-5 -5 -9 -9 -5 -3 -3 -2 1 10 12 15 10 15 13 11 10 10 12 11 10 10 10 10 13 12 12 13 12 13 15 14 14 14 16 14 13 14 14 14 13 13 14 15
-1 -5 -9 -10 -10 -8 -4 -1 -5 -1 3 9 12 13 11 9 7 7 11 11 10 10 10 12 13 11 12 12 13 13 14 14 13 15 14 13 12 14 15 14 13 14 16 15
-2 1 -1 -9 -8 -9 -7 -5 2 -2 6 10 15 14 15 13 14 9 12 13 12 12 11 11 12 13 13 12 12 14 14 15 14 16 15 14 13 13 14 15 15 14 15 14
-5 -3 -0 -2 1 -0 -0 -2 8 6 9 11 16 14 12 13 12 12 9 12 11 10 12 12 10 11 14 13 13 13 15 16 15 15 16 15 15 14 14 15 15 11 15 16
-3 -1 3 5 4 2 1 2 7 8 15 14 12 16 13 12 12 9 9 11 13 11 11 12 11 10 11 15 13 12 14 16 14 15 15 15 16 16 15 14 15 15 13 13
-1 -0 0 5 9 6 3 2 5 5 6 12 14 14 9 11 13 13 11 11 13 14 14 13 14 13 13 16 13 14 13 15 15 14 14 15 15 16 16 16 15 14 14 13
-3 -1 -1 1 7 9 6 7 6 6 7 5 5 13 9 12 12 13 14 14 13 14 15 15 15 14 16 15 16 16 15 15 15 14 15 15 15 15 15 15 15 16 15 15
-4 -1 -1 -1 2 5 3 3 6 7 8 9 10 12 9 8 11 14 14 15 14 15 14 14 13 13 13 13 13 16 15 17 15 15 14 15 14 14 15 15 16 16 16 16
-3 1 -1 -1 -0 2 4 2 3 5 10 11 8 11 12 11 13 14 14 15 15 15 15 12 12 12 12 13 14 14 14 15 17 16 15 15 15 15 14 15 16 16 16 15
-1 1 2 4 2 4 5 6 7 7 9 8 10 10 13 12 13 14 14 14 15 15 15 15 15 11 12 11 12 14 16 14 14 18 15 17 16 15 15 15 15 15 15 14
-1 0 1 2 1 6 4 5 5 7 3 5 11 10 11 12 13 13 13 14 14 14 14 14 13 14 12 14 13 13 14 15 15 15 16 16 17 17 17 15 14 15 14 15
-6 -3 -1 2 1 1 5 5 4 4 3 5 12 11 11 13 13 12 12 12 13 14 14 13 13 12 14 13 15 14 12 12 13 14 15 14 14 14 16 16 16 16 16 15
-4 -3 -1 1 4 5 7 5 2 -1 3 6 6 10 12 12 14 13 11 12 12 13 13 14 14 14 14 14 14 13 13 13 13 13 14 14 13 16 15 15 15 15 15 15
2 1 -0 0 1 2 5 4 3 3 9 6 6 7 9 12 11 11 11 12 12 12 13 13 13 13 14 14 14 14 14 14 14 13 14 15 14 15 15 14 14 13 13 13
2 2 -1 -1 2 7 4 3 7 7 5 6 7 7 8 9 10 11 10 11 12 12 12 13 13 13 13 13 14 15 15 15 15 14 14 15 14 14 13 12 11 11 11 12
2 -0 0 2 5 5 5 6 4 3 4 6 7 6 7 7 8 9 9 9 11 12 12 12 12 12 13 14 14 14 15 15 15 14 14 12 10 12 12 12 13 11 12 11
1 2 1 3 5 3 3 3 2 1 3 4 4 4 3 4 6 7 8 9 11 12 12 11 12 12 13 13 14 14 14 13 13 14 14 12 13 12 13 13 11 13 13 13
5 3 4 4 3 0 1 0 1 2 3 2 3 2 2 2 4 6 8 9 11 11 11 12 12 12 13 13 13 13 13 13 14 14 14 13 13 12 12 12 13 13 13 13
1 5 4 3 3 6 3 2 1 1 2 3 3 4 3 2 5 5 8 9 11 10 10 12 12 12 12 12 13 13 13 13 13 13 13 12 12 13 11 12 13 13 13 13

GFSCGP_850_dewp_141.txt.gz
Dewpoint
-13 -8 -3 -2 -0 5 7 10 13 13 12 16 15 15 14 12 13 12 13 13 12 11 11 12 13 13 13 13 13 13 14 13 14 13 14 13 13 12 13 14 13 13 13 13
-11 -9 -8 -6 -4 1 7 9 14 15 15 15 15 15 15 13 13 11 13 13 12 12 13 13 12 13 13 13 12 13 14 13 13 12 14 13 12 13 13 14 14 13 12 12
-10 -10 -11 -9 -5 -1 5 7 12 12 11 9 13 15 16 13 13 12 12 12 13 13 12 13 12 13 13 13 12 12 14 14 13 12 13 12 12 13 13 14 14 12 11 12
-11 -12 -11 -9 -6 -4 5 5 8 10 11 11 9 15 17 15 14 13 12 12 12 13 13 12 13 13 13 12 11 12 12 13 13 13 13 13 13 12 13 13 12 12 10 11
-9 -10 -10 -5 -5 -2 1 2 3 5 7 7 7 12 15 16 16 14 12 11 11 12 13 12 12 14 14 13 12 13 12 12 13 12 13 13 13 13 13 13 13 14 14 11
-7 -8 -7 -6 -6 -4 -3 2 4 5 6 10 10 12 17 17 16 15 13 12 11 11 13 11 11 11 14 14 13 13 12 11 12 12 13 13 13 14 14 14 13 14 13 12
-6 -6 -8 -8 -5 -5 -3 -1 5 10 11 12 10 11 15 15 14 14 13 13 11 11 12 12 11 11 14 14 13 13 13 11 13 13 14 13 14 14 15 13 14 13 12 13
-2 -3 -7 -8 -5 -3 -2 -2 2 10 11 11 10 15 14 12 12 12 12 13 12 11 11 13 12 11 13 14 14 13 14 12 12 13 13 14 13 14 15 13 13 13 12 15
0 -4 -9 -9 -8 -7 -5 0 -3 -1 4 10 13 14 11 11 11 12 12 14 14 13 10 12 12 11 12 14 14 13 13 13 11 12 12 14 15 14 14 14 15 13 14 14
-2 2 -1 -8 -10 -10 -8 -6 0 8 11 11 15 15 14 13 13 13 13 13 13 12 10 12 12 12 11 13 13 13 12 13 11 10 11 14 14 12 14 14 14 13 14 14
-6 -0 1 -3 5 5 4 -0 7 10 12 13 16 15 11 13 13 13 14 14 14 11 10 12 12 12 13 14 14 13 13 14 13 13 10 11 13 13 13 15 12 13 15 15
0 0 4 7 4 3 4 5 7 9 13 13 14 14 12 12 12 13 13 15 14 14 13 12 12 13 14 13 13 15 13 14 14 13 11 13 13 13 13 13 12 14 15 15
-1 3 5 9 7 5 6 4 4 5 10 13 12 13 11 11 12 9 12 14 10 15 15 14 14 14 14 14 13 15 15 14 15 13 12 14 13 14 15 13 12 13 12 12
-2 -1 2 4 8 8 6 5 5 6 8 11 12 12 10 10 12 11 13 14 15 14 14 15 15 14 14 14 14 15 16 16 16 14 12 13 15 15 14 15 16 15 14 14
-2 1 0 -0 5 5 4 4 4 7 9 10 12 10 9 11 10 13 14 14 15 15 15 12 15 14 14 15 14 14 14 16 16 16 16 14 14 14 15 15 15 15 15 15
-0 1 2 3 1 5 6 6 6 6 6 9 10 10 9 7 12 14 14 14 15 16 15 13 13 14 13 13 11 12 12 14 13 15 15 16 14 14 15 14 15 16 16 15
3 4 5 5 3 4 7 7 7 6 8 7 10 11 10 11 13 13 14 14 15 15 15 15 13 12 12 10 8 10 13 13 13 12 14 15 16 15 15 15 15 16 16 16
1 3 4 5 4 6 6 4 4 6 8 11 12 12 10 10 13 13 13 14 14 14 14 14 14 13 11 10 12 12 13 14 12 11 12 12 16 15 15 14 14 14 15 14
-5 3 3 4 5 4 6 4 3 7 12 10 11 12 11 12 12 12 12 13 13 13 13 13 13 13 13 15 13 13 12 14 15 15 14 13 13 13 15 14 15 15 14 14
-1 2 1 1 5 8 9 4 3 5 14 11 10 10 13 13 14 13 12 12 13 13 13 13 13 13 13 14 14 14 13 13 13 13 13 15 15 16 16 15 15 14 15 15
4 4 4 4 4 8 5 5 2 7 11 11 11 9 8 12 12 11 12 12 13 13 13 13 13 12 13 14 13 14 13 13 15 14 13 13 14 14 15 15 15 15 14 13
6 7 4 3 2 10 4 6 10 9 9 11 11 6 5 7 11 11 12 12 12 12 11 12 12 13 12 13 13 14 14 15 14 15 14 14 14 14 15 15 14 12 12 11
5 5 7 3 10 7 4 4 5 3 8 8 11 10 10 11 10 10 11 12 12 12 11 12 12 12 12 13 13 14 14 14 15 15 14 14 14 13 13 13 12 12 12 12
6 5 8 7 7 5 4 4 2 2 7 6 5 4 6 9 9 8 9 11 11 12 11 11 12 12 13 12 13 14 14 13 13 14 14 11 10 10 11 12 13 12 13 13
6 5 6 5 4 4 2 2 1 1 3 3 2 2 2 4 7 8 9 10 11 10 10 11 11 12 11 12 13 14 13 13 13 14 14 13 12 13 13 13 13 13 13 13
6 7 5 6 5 7 3 1 1 2 3 3 3 3 2 3 5 8 9 10 10 9 10 10 11 11 12 12 13 13 13 13 14 13 13 13 12 12 12 12 13 13 13 12

GFSCGP_850_dewp_147.txt.gz
Dewpoint
-12 -10 -7 -5 -1 2 8 12 14 13 14 14 16 15 15 12 13 13 13 13 12 12 12 12 12 13 13 13 13 13 12 13 12 12 13 13 13 12 12 13 13 12 12 12
-10 -10 -12 -9 -5 -3 -1 11 13 13 14 15 16 16 14 13 12 13 13 13 12 13 13 13 13 13 13 13 13 12 10 10 11 12 13 13 13 12 12 13 13 13 12 11
-10 -12 -12 -11 -11 -8 -7 11 14 12 14 14 15 15 16 14 12 12 13 13 12 12 13 13 13 13 13 13 12 12 11 10 10 12 12 13 13 12 12 13 14 14 13 12
-9 -10 -11 -11 -10 -9 -5 10 12 9 12 14 13 14 13 15 14 13 12 13 13 13 13 13 13 13 13 13 13 12 13 12 10 13 12 13 13 13 12 13 13 14 13 12
-3 -10 -10 -10 -10 -6 -2 9 8 8 11 8 8 13 11 15 15 14 12 12 13 13 12 13 13 13 13 13 13 13 13 12 11 12 12 13 13 13 12 11 13 13 13 13
-4 -8 -8 -7 -6 -4 4 5 4 7 8 9 7 12 12 16 14 14 13 12 13 13 13 13 13 13 13 13 13 13 13 12 12 12 12 13 13 12 13 12 12 13 13 13
-6 -7 -8 -8 -6 -6 -3 -0 5 10 10 10 8 11 14 13 13 13 14 13 12 13 13 13 13 13 13 13 13 13 12 13 13 13 12 12 12 12 13 12 12 12 13 14
-3 -2 -7 -8 -6 -4 -3 -2 2 5 11 9 7 9 15 11 12 14 14 14 12 12 13 13 13 13 13 13 13 13 12 13 13 13 13 11 12 12 12 13 13 13 12 12
-2 -1 -8 -8 -7 -7 -5 -4 -4 2 4 6 9 11 12 11 12 12 12 14 13 12 12 13 13 13 13 13 13 13 13 13 13 13 13 12 12 13 13 13 14 13 12 13
-4 -1 -1 -0 -4 1 -8 -5 -3 6 8 9 12 13 11 11 12 12 12 12 14 13 12 13 12 13 13 13 13 13 14 13 12 12 13 12 12 12 12 13 13 12 13 12
-3 -0 1 3 4 4 3 6 9 9 8 11 11 11 11 10 12 12 12 10 12 14 14 13 12 12 12 12 12 12 13 13 13 11 10 12 12 13 12 12 13 14 13 13
-1 2 6 5 4 3 4 5 6 6 10 10 10 10 11 11 12 11 11 11 13 14 15 14 13 12 12 12 12 12 13 14 13 12 11 11 12 13 13 12 13 14 14 13
-1 3 7 4 -0 1 3 4 6 7 8 10 10 9 11 12 10 9 11 12 12 14 15 15 13 12 12 12 13 13 13 14 13 13 13 12 12 13 13 14 13 13 14 15
-2 -0 2 3 1 2 6 5 6 5 8 9 9 9 11 12 12 9 11 12 10 11 14 16 15 13 13 13 13 14 13 14 14 13 14 13 13 13 13 13 14 13 13 13
-4 -1 -0 -1 -1 5 4 5 6 6 5 8 8 11 8 10 12 9 10 11 11 10 9 13 15 15 13 12 13 14 14 14 14 14 14 14 14 13 13 13 14 13 13 13
-2 -1 -1 3 3 4 5 4 5 6 8 9 10 10 7 10 10 10 12 13 12 11 10 11 12 13 11 12 15 15 14 16 15 15 15 14 14 14 13 13 14 13 14 13
1 2 2 3 1 4 5 5 6 6 7 9 11 9 9 10 11 13 14 14 13 12 15 14 13 12 13 14 13 11 12 15 15 14 15 15 15 15 14 13 14 14 14 14
1 1 1 2 0 3 0 4 5 7 9 9 10 11 10 12 13 14 13 14 14 15 15 15 14 14 12 12 12 12 12 13 14 15 15 15 15 14 14 15 14 13 14 14
-3 1 2 1 2 1 5 6 8 7 8 10 10 10 12 13 12 13 13 13 13 14 15 13 14 14 13 13 13 13 14 15 14 14 13 13 14 13 13 13 12 14 14 13
-1 -2 0 1 1 4 4 5 5 5 10 10 10 11 11 13 13 12 13 12 12 14 14 14 14 13 13 13 13 13 13 13 14 15 14 14 13 13 12 12 13 13 14 14
2 2 0 3 1 2 2 6 5 6 7 10 10 11 12 12 10 12 13 13 12 11 11 11 11 11 11 11 12 13 13 13 13 13 13 13 12 13 13 13 13 12 13 14
1 3 3 2 7 4 5 6 5 5 6 7 9 9 11 12 12 12 12 12 11 10 9 8 8 9 11 13 14 13 13 14 14 14 14 14 13 14 14 14 13 14 14 13
5 3 4 1 2 0 4 4 7 5 5 7 6 8 8 10 11 12 12 12 11 10 10 8 7 8 10 12 13 12 13 13 13 14 14 14 14 14 14 13 13 14 14 14
4 5 6 4 5 6 5 6 7 6 5 6 5 6 7 11 12 12 12 12 11 11 10 8 7 11 12 11 12 12 12 12 14 14 14 13 13 13 13 11 12 13 13 12
4 4 4 4 3 5 5 4 5 7 7 7 7 7 5 9 11 11 11 11 11 10 8 8 8 11 11 11 11 11 12 12 13 14 13 11 11 11 11 12 13 12 12 12
5 4 4 5 3 4 4 5 5 7 8 7 8 8 9 10 10 11 11 11 10 7 7 8 10 11 11 12 11 11 12 13 13 13 13 13 13 12 12 13 12 12 13 13